Regional Weather Roundup
Issued by NWS

Home | Current Version | Previous Version | Text Only | Print | Product List | Glossary On
Versions: 1 2 3 4 5 6 7 8 9 10 11 12 13 14 15 16 17 18 19 20 21 22 23 24 25 26 27 28 29 30 31 32 33 34 35 36 37 38 39 40 41 42 43 44 45 46 47 48 49 50
000
ASUS43 KBIS 281310
RWRND

NORTH DAKOTA REGIONAL WEATHER ROUNDUP
NATIONAL WEATHER SERVICE BISMARCK ND
700 AM CST TUE FEB 28 2017

NOTE: "FAIR" INDICATES FEW OR NO CLOUDS BELOW 12,000 FEET WITH NO
SIGNIFICANT WEATHER AND/OR OBSTRUCTIONS TO VISIBILITY.


NDZ001>003-009>011-017-281400-
NORTHWEST NORTH DAKOTA

CITY           SKY/WX    TMP DP  RH WIND       PRES   REMARKS
WILLISTON      CLOUDY    10   6  84 SE5       29.83R WCI   2
MINOT          CLOUDY     8   5  87 E7        29.88S FOG     WCI  -3
MINOT AFB      FOG        5   2  86 CALM      29.88S VSB 0
$$

NDZ018>021-031>035-040>046-281400-
SOUTHWEST NORTH DAKOTA

CITY           SKY/WX    TMP DP  RH WIND       PRES   REMARKS
BISMARCK       CLOUDY    19  15  84 NE9       29.85R WCI   8
DICKINSON      CLOUDY    11   8  88 NE7       29.75S WCI   0
GARRISON         N/A     11   8  88 E7        29.85R WCI   0
HETTINGER ARPT CLOUDY    19  17  92 E9        29.75R WCI   8
$$

NDZ004>008-012>016-024-026-027-054-281400-
NORTHEAST NORTH DAKOTA

CITY           SKY/WX    TMP DP  RH WIND       PRES   REMARKS
GRAND FORKS    PTCLDY     8   1  73 N9        29.93R WCI  -5
GRND FRKS AFB  CLEAR      7   1  77 N9        29.94R WCI  -7
DEVILS LAKE    FAIR      -4  -7  87 N6        29.92R WCI -16
$$

NDZ022-023-025-028>030-036>039-047>053-281400-
SOUTHEAST NORTH DAKOTA

CITY           SKY/WX    TMP DP  RH WIND       PRES   REMARKS
FARGO          PTCLDY    20  16  84 N14       29.86R WCI   7
JAMESTOWN      FAIR      12   9  87 N10       29.85S WCI  -1
$$




USA.gov is the U.S. government's official web portal to all federal, state and local government web resources and services.